TimeCDT,TemperatureF,Dew PointF,Humidity,Sea Level PressureIn,VisibilityMPH,Wind Direction,Wind SpeedMPH,Gust SpeedMPH,PrecipitationIn,Events,Conditions,WindDirDegrees,DateUTC
12:15 AM,66.2,62.6,88,30.06,7.0,Calm,Calm,-,N/A,,Clear,0,2013-08-29 05:15:00
12:35 AM,68.0,62.6,83,30.06,10.0,Calm,Calm,-,N/A,,Clear,0,2013-08-29 05:35:00
12:55 AM,66.2,62.6,88,30.06,7.0,Calm,Calm,-,N/A,,Clear,0,2013-08-29 05:55:00
1:15 AM,66.2,62.6,88,30.06,7.0,Calm,Calm,-,N/A,,Clear,0,2013-08-29 06:15:00
1:35 AM,66.2,62.6,88,30.06,7.0,Calm,Calm,-,N/A,,Clear,0,2013-08-29 06:35:00
1:55 AM,68.0,62.6,83,30.06,10.0,Calm,Calm,-,N/A,,Clear,0,2013-08-29 06:55:00
2:15 AM,68.0,62.6,83,30.06,10.0,Calm,Calm,-,N/A,,Clear,0,2013-08-29 07:15:00
2:35 AM,66.2,62.6,88,30.06,10.0,Calm,Calm,-,N/A,,Clear,0,2013-08-29 07:35:00
2:55 AM,68.0,62.6,83,30.06,10.0,Calm,Calm,-,N/A,,Clear,0,2013-08-29 07:55:00
3:15 AM,68.0,62.6,83,30.06,10.0,Calm,Calm,-,N/A,,Clear,0,2013-08-29 08:15:00
3:35 AM,64.4,62.6,94,30.06,7.0,Calm,Calm,-,N/A,,Clear,0,2013-08-29 08:35:00
3:55 AM,64.4,60.8,88,30.06,10.0,Calm,Calm,-,N/A,,Clear,0,2013-08-29 08:55:00
4:15 AM,64.4,62.6,94,30.06,10.0,Calm,Calm,-,N/A,,Clear,0,2013-08-29 09:15:00
4:35 AM,64.4,62.6,94,30.07,7.0,Calm,Calm,-,N/A,,Clear,0,2013-08-29 09:35:00
4:55 AM,64.4,62.6,94,30.07,7.0,Calm,Calm,-,N/A,,Clear,0,2013-08-29 09:55:00
5:15 AM,64.4,60.8,88,30.07,7.0,Calm,Calm,-,N/A,,Clear,0,2013-08-29 10:15:00
5:35 AM,64.4,60.8,88,30.07,7.0,Calm,Calm,-,N/A,,Clear,0,2013-08-29 10:35:00
5:55 AM,64.4,62.6,94,30.07,10.0,Calm,Calm,-,N/A,,Clear,0,2013-08-29 10:55:00
6:15 AM,62.6,60.8,94,30.08,5.0,Calm,Calm,-,N/A,,Clear,0,2013-08-29 11:15:00
6:35 AM,64.4,60.8,88,30.08,7.0,Calm,Calm,-,N/A,,Clear,0,2013-08-29 11:35:00
6:45 AM,64.4,60.8,88,30.09,10.0,Calm,Calm,-,N/A,,Clear,0,2013-08-29 11:45:00
6:55 AM,62.6,60.8,94,30.09,7.0,Calm,Calm,-,N/A,,Clear,0,2013-08-29 11:55:00
7:45 AM,69.8,62.6,78,30.09,10.0,Calm,Calm,-,N/A,,Clear,0,2013-08-29 12:45:00
8:45 AM,75.2,64.4,69,30.11,10.0,Calm,Calm,-,N/A,,Clear,0,2013-08-29 13:45:00
9:45 AM,78.8,64.4,61,30.10,10.0,Calm,Calm,-,N/A,,Clear,0,2013-08-29 14:45:00
10:45 AM,82.4,64.4,54,30.10,10.0,Calm,Calm,-,N/A,,Clear,0,2013-08-29 15:45:00
11:45 AM,84.2,64.4,51,30.09,10.0,SSE,4.6,-,N/A,,Clear,160,2013-08-29 16:45:00
12:45 PM,86.0,60.8,43,30.08,10.0,ESE,4.6,-,N/A,,Clear,110,2013-08-29 17:45:00
1:45 PM,87.8,64.4,46,30.06,10.0,SSE,5.8,-,N/A,,Clear,160,2013-08-29 18:45:00
2:45 PM,87.8,62.6,43,30.05,10.0,ESE,8.1,-,N/A,,Clear,110,2013-08-29 19:45:00
4:45 PM,84.2,62.6,48,30.03,10.0,ESE,8.1,-,N/A,,Clear,110,2013-08-29 21:45:00
5:45 PM,84.2,62.6,48,30.02,10.0,SE,9.2,-,N/A,,Clear,140,2013-08-29 22:45:00
6:45 PM,82.4,60.8,48,30.01,10.0,SSE,8.1,-,N/A,,Clear,150,2013-08-29 23:45:00
7:45 PM,80.6,60.8,51,30.01,10.0,ESE,5.8,-,N/A,,Clear,120,2013-08-30 00:45:00
8:45 PM,75.2,62.6,65,30.07,10.0,SE,5.8,-,N/A,,Clear,140,2013-08-30 01:45:00
9:15 PM,73.4,62.6,69,30.01,10.0,SSE,4.6,-,N/A,,Clear,160,2013-08-30 02:15:00
9:35 PM,73.4,62.6,69,30.01,10.0,Calm,Calm,-,N/A,,Clear,0,2013-08-30 02:35:00
9:55 PM,73.4,62.6,69,30.01,10.0,Calm,Calm,-,N/A,,Clear,0,2013-08-30 02:55:00
10:15 PM,71.6,62.6,73,30.00,10.0,SSW,3.5,-,N/A,,Clear,200,2013-08-30 03:15:00
10:35 PM,69.8,62.6,78,30.00,10.0,WSW,4.6,-,N/A,,Clear,240,2013-08-30 03:35:00
10:55 PM,69.8,62.6,78,30.00,10.0,South,4.6,-,N/A,,Clear,190,2013-08-30 03:55:00
11:15 PM,69.8,62.6,78,30.01,10.0,Calm,Calm,-,N/A,,Clear,0,2013-08-30 04:15:00
11:35 PM,69.8,62.6,78,30.01,10.0,Calm,Calm,-,N/A,,Clear,0,2013-08-30 04:35:00
11:55 PM,69.8,62.6,78,30.00,10.0,SW,3.5,-,N/A,,Clear,220,2013-08-30 04:55:00